STARLINK-2415, 47828

Orbit data source: Space-Track

STARLINK-2415, 47828 is a payload satellite owned by SpaceX/Seattle (US) in LEO that was launched on Thu, 11 Mar 2021 UTC via an FALCON 9 launch vehicle from the Air Force Eastern Test Range (AFETR). Payload-class satellites include a variety of spacecraft equipped with specific instruments for various scientific and technological missions. These include communications satellites like Starlink; space stations such as the ISS; scientific satellites like the Hubble; Earth observation satellites from companies like Planet Labs, Umbra, and HawkEye 360; GPS; miniature CubeSats for education and research; and military/defense satellites.

Loading next visibility...
Identifier
47828, 2021-018AT
Orbit
LEO
Country
Flag of USUS
Related business
Manufacturer
SpaceX/Seattle
Mission
Operational Commercial Communications
Bus & Motor
STARLINK, Unknown motor
Mass
260 kg wet, ~248 kg dry
Launch date (UTC)
2021-03-11 (5 years ago)
Launch vehicle
FALCON 9
Launch site
Air Force Eastern Test Range (AFETR)
Object type
Payload
Rocket body
Debris
Shape & HBR
Box + 1 Pan, 10.1 m
Radar Cross Section
13.562 m², Large (>1 m²)

Expand to show TLE details & history
Last TLE update: 21 hours ago

TLE from 21 hours ago
0 STARLINK-2415
1 47828U 21018AT  25292.00500395  .00004139  00000-0  29643-3 0  9997
2 47828  53.0539 177.6672 0001445  84.1290 275.9864 15.06419590255104
Epoch: 2025-10-19T00:07Z
TLE epoch observation values (Epoch: 2025-10-19T00:07:12.341Z)
Latitude
0.00001°
Longitude
148.13791°
Altitude
547.926 km
Speed
7.589 km/s
True Right ascension
11h 50m 40s
True Declination
0° 00' 00"
Sunlit
Object was in daylight at epoch
Visualization orbit readout
Latitude
Unknown
Longitude
Unknown
Altitude
Unknown
Speed
Unknown
Apparent Right ascension
Unknown
Apparent Declination
Unknown
Sunlit
N/A
Visualization observer readout
Local Sidereal Time
16:03:14
Azimuth
Unknown
Elevation
Unknown
Doppler factor
Unknown
Orbital elements
Apogee altitude
548.423 km
Perigee altitude
546.422 km
Semi-major axis
6,925.559 km
Eccentricity
0.00014
Inclination
53.0539°
RAAN
177.6672°
Arg. of periapsis
84.129°
True anomaly
275.96993°
Mean anomaly
275.9864°
Eccentric anomaly
275.97817°
Mean motion
3.76583 °/min
Orbital period
95.6 mins
BSTAR
0.00029643
Loading maneuver chart data...
Computing Atmospheric mass density...

Documentation

Showing up to 5 results
|